TimeEST,TemperatureF,Dew PointF,Humidity,Sea Level PressureIn,VisibilityMPH,Wind Direction,Wind SpeedMPH,Gust SpeedMPH,PrecipitationIn,Events,Conditions,WindDirDegrees,DateUTC
12:15 AM,60.1,53.4,79,30.10,10.0,South,8.1,-,N/A,,Scattered Clouds,190,2012-12-04 05:15:00
12:35 AM,60.6,53.6,78,30.10,10.0,SSW,8.1,-,N/A,,Mostly Cloudy,200,2012-12-04 05:35:00
1:15 AM,60.1,54.1,81,30.09,10.0,SSW,8.1,-,N/A,,Mostly Cloudy,200,2012-12-04 06:15:00
1:35 AM,60.1,54.5,82,30.09,10.0,SSW,6.9,-,N/A,,Mostly Cloudy,200,2012-12-04 06:35:00
1:55 AM,60.1,54.5,82,30.09,10.0,SSW,9.2,-,N/A,,Overcast,200,2012-12-04 06:55:00
2:15 AM,60.1,54.5,82,30.09,10.0,SSW,8.1,-,N/A,,Overcast,200,2012-12-04 07:15:00
2:35 AM,59.2,53.8,82,30.10,10.0,SSW,9.2,-,N/A,,Overcast,200,2012-12-04 07:35:00
2:55 AM,59.5,54.0,82,30.09,10.0,SSW,10.4,-,N/A,,Overcast,210,2012-12-04 07:55:00
3:15 AM,59.0,53.6,82,30.09,10.0,SSW,10.4,-,N/A,,Mostly Cloudy,200,2012-12-04 08:15:00
3:55 AM,59.0,53.2,81,30.08,10.0,SSW,8.1,-,N/A,,Overcast,200,2012-12-04 08:55:00
4:15 AM,59.0,53.1,81,30.08,10.0,SSW,9.2,-,N/A,,Overcast,200,2012-12-04 09:15:00
4:35 AM,59.0,53.1,81,30.08,10.0,SSW,10.4,-,N/A,,Overcast,200,2012-12-04 09:35:00
4:55 AM,59.0,52.7,80,30.07,10.0,SSW,11.5,-,N/A,,Overcast,200,2012-12-04 09:55:00
5:15 AM,59.0,52.9,80,30.07,10.0,SSW,10.4,-,N/A,,Overcast,200,2012-12-04 10:15:00
5:35 AM,59.0,52.5,79,30.07,10.0,SSW,9.2,-,N/A,,Overcast,200,2012-12-04 10:35:00
5:55 AM,59.0,52.7,80,30.07,10.0,South,9.2,-,N/A,,Overcast,190,2012-12-04 10:55:00
6:15 AM,59.0,52.9,80,30.07,10.0,SSW,9.2,-,N/A,,Overcast,200,2012-12-04 11:15:00
6:35 AM,59.0,52.9,80,30.07,10.0,SSW,9.2,-,N/A,,Overcast,200,2012-12-04 11:35:00
6:55 AM,59.0,52.9,80,30.08,10.0,SSW,9.2,-,N/A,,Overcast,200,2012-12-04 11:55:00
7:15 AM,59.0,53.1,81,30.08,10.0,SSW,9.2,-,N/A,,Overcast,200,2012-12-04 12:15:00
7:35 AM,59.0,53.1,81,30.08,10.0,SSW,10.4,-,N/A,,Overcast,200,2012-12-04 12:35:00
7:55 AM,58.5,53.1,82,30.08,10.0,SSW,10.4,-,N/A,,Mostly Cloudy,200,2012-12-04 12:55:00
8:15 AM,59.0,53.6,82,30.08,10.0,SSW,9.2,-,N/A,,Overcast,200,2012-12-04 13:15:00
8:35 AM,59.0,53.6,82,30.08,10.0,SSW,10.4,-,N/A,,Mostly Cloudy,200,2012-12-04 13:35:00
8:55 AM,60.1,54.5,82,30.08,10.0,SSW,9.2,-,N/A,,Mostly Cloudy,200,2012-12-04 13:55:00
9:15 AM,60.1,54.7,82,30.08,10.0,SSW,10.4,-,N/A,,Scattered Clouds,210,2012-12-04 14:15:00
9:35 AM,62.6,56.3,80,30.08,10.0,SSW,12.7,-,N/A,,Mostly Cloudy,210,2012-12-04 14:35:00
9:55 AM,62.6,56.7,81,30.08,10.0,SSW,13.8,19.6,N/A,,Overcast,210,2012-12-04 14:55:00
10:15 AM,62.6,56.8,81,30.08,10.0,SSW,15.0,20.7,N/A,,Overcast,200,2012-12-04 15:15:00
10:35 AM,62.6,56.8,81,30.08,10.0,SSW,13.8,-,N/A,,Overcast,200,2012-12-04 15:35:00
10:55 AM,62.6,57.2,82,30.07,10.0,SSW,15.0,-,N/A,,Overcast,210,2012-12-04 15:55:00
11:15 AM,62.6,57.4,83,30.07,10.0,SW,13.8,17.3,N/A,,Overcast,220,2012-12-04 16:15:00
11:35 AM,62.6,57.9,85,30.07,10.0,SSW,11.5,-,N/A,,Overcast,210,2012-12-04 16:35:00
11:55 AM,64.9,60.1,84,30.06,10.0,SW,10.4,16.1,N/A,,Overcast,220,2012-12-04 16:55:00
12:15 PM,65.3,60.1,83,30.04,10.0,SSW,11.5,-,N/A,,Overcast,210,2012-12-04 17:15:00
12:35 PM,65.3,60.1,83,30.04,10.0,SSW,10.4,-,N/A,,Overcast,210,2012-12-04 17:35:00
12:55 PM,65.3,60.3,84,30.03,10.0,SSW,13.8,19.6,N/A,,Overcast,210,2012-12-04 17:55:00
1:15 PM,62.6,59.2,89,30.02,10.0,SW,16.1,-,N/A,Rain,Light Rain,230,2012-12-04 18:15:00
1:35 PM,62.6,59.4,89,30.02,10.0,SW,11.5,-,N/A,,Overcast,230,2012-12-04 18:35:00
1:55 PM,60.8,59.5,96,30.02,3.0,SW,11.5,-,N/A,Rain,Heavy Rain,230,2012-12-04 18:55:00
2:15 PM,60.1,60.1,100,30.02,10.0,SW,11.5,-,N/A,,Overcast,230,2012-12-04 19:15:00
2:35 PM,60.1,60.1,100,30.02,5.0,SW,8.1,-,N/A,Rain,Light Rain,220,2012-12-04 19:35:00
2:55 PM,60.1,60.1,100,30.02,7.0,SW,9.2,-,N/A,Rain,Rain,230,2012-12-04 19:55:00
3:15 PM,60.1,60.1,100,30.02,3.0,SW,8.1,-,N/A,Rain,Rain,220,2012-12-04 20:15:00
3:35 PM,60.1,60.1,100,30.02,3.0,WSW,8.1,-,N/A,Rain,Rain,240,2012-12-04 20:35:00
3:55 PM,52.7,52.7,100,30.06,7.0,NNW,17.3,24.2,N/A,Rain,Light Rain,340,2012-12-04 20:55:00
4:15 PM,52.7,52.7,100,30.07,10.0,North,12.7,17.3,N/A,Rain,Light Rain,360,2012-12-04 21:15:00
4:35 PM,52.3,52.3,100,30.09,10.0,North,11.5,18.4,N/A,Rain,Light Rain,10,2012-12-04 21:35:00
4:55 PM,47.7,45.7,93,30.11,10.0,NNE,9.2,21.9,N/A,,Light Drizzle,20,2012-12-04 21:55:00
5:15 PM,47.7,46.4,95,30.13,10.0,NNE,6.9,-,N/A,,Overcast,30,2012-12-04 22:15:00
5:35 PM,47.7,46.6,96,30.14,7.0,North,5.8,-,N/A,,Unknown,360,2012-12-04 22:35:00
5:55 PM,47.7,46.4,95,30.14,7.0,NNE,6.9,-,N/A,,Unknown,20,2012-12-04 22:55:00
6:15 PM,47.7,46.4,95,30.15,10.0,North,6.9,-,N/A,,Unknown,10,2012-12-04 23:15:00
6:35 PM,47.7,46.4,95,30.16,10.0,NNW,3.5,-,N/A,,Overcast,340,2012-12-04 23:35:00
6:55 PM,47.7,46.6,96,30.17,10.0,Calm,Calm,-,N/A,,Overcast,0,2012-12-04 23:55:00
7:15 PM,47.7,46.6,96,30.18,10.0,Calm,Calm,-,N/A,,Overcast,0,2012-12-05 00:15:00
7:35 PM,47.7,46.4,95,30.18,10.0,Calm,Calm,-,N/A,,Overcast,0,2012-12-05 00:35:00
7:55 PM,47.7,46.8,97,30.18,10.0,Calm,Calm,-,N/A,,Overcast,0,2012-12-05 00:55:00
8:15 PM,47.7,46.8,97,30.19,10.0,Calm,Calm,-,N/A,,Overcast,0,2012-12-05 01:15:00
8:35 PM,46.8,46.6,99,30.19,10.0,SSW,3.5,-,N/A,,Overcast,210,2012-12-05 01:35:00
8:55 PM,45.1,45.1,100,30.19,10.0,WSW,3.5,-,N/A,,Overcast,240,2012-12-05 01:55:00
9:15 PM,42.8,42.8,100,30.20,10.0,SW,4.6,-,N/A,,Mostly Cloudy,230,2012-12-05 02:15:00
9:35 PM,43.2,43.2,100,30.20,10.0,SW,4.6,-,N/A,,Scattered Clouds,230,2012-12-05 02:35:00
9:55 PM,41.0,41.0,100,30.21,7.0,Calm,Calm,-,N/A,,Clear,0,2012-12-05 02:55:00
10:15 PM,39.9,39.9,100,30.22,1.0,SW,4.6,-,N/A,,Mist,220,2012-12-05 03:15:00
10:35 PM,40.6,40.6,100,30.22,4.0,Calm,Calm,-,N/A,,Clear,0,2012-12-05 03:35:00
10:55 PM,38.7,38.7,100,30.22,1.0,Calm,Calm,-,N/A,,Mist,0,2012-12-05 03:55:00
11:15 PM,37.6,37.6,100,30.21,0.5,Calm,Calm,-,N/A,Fog,Fog,0,2012-12-05 04:15:00
11:35 PM,38.8,38.8,100,30.21,0.8,Calm,Calm,-,N/A,,Mist,0,2012-12-05 04:35:00
11:55 PM,38.1,38.1,100,30.22,0.5,Calm,Calm,-,N/A,Fog,Fog,0,2012-12-05 04:55:00